TimeEDT,TemperatureF,Dew PointF,Humidity,Sea Level PressureIn,VisibilityMPH,Wind Direction,Wind SpeedMPH,Gust SpeedMPH,PrecipitationIn,Events,Conditions,WindDirDegrees,DateUTC
12:14 AM,46.4,37.4,71,29.99,10.0,Calm,Calm,-,N/A,,Clear,0,2011-11-02 04:14:00
12:33 AM,44.6,37.4,76,29.99,10.0,Calm,Calm,-,N/A,,Clear,0,2011-11-02 04:33:00
1:14 AM,44.6,37.4,76,29.99,10.0,Calm,Calm,-,N/A,,Clear,0,2011-11-02 05:14:00
1:34 AM,44.6,37.4,76,29.99,10.0,Calm,Calm,-,N/A,,Mostly Cloudy,0,2011-11-02 05:34:00
1:54 AM,44.6,37.4,76,29.99,10.0,Calm,Calm,-,N/A,,Mostly Cloudy,0,2011-11-02 05:54:00
2:14 AM,42.8,37.4,81,29.98,10.0,Calm,Calm,-,N/A,,Scattered Clouds,0,2011-11-02 06:14:00
2:34 AM,42.8,37.4,81,29.98,10.0,Calm,Calm,-,N/A,,Scattered Clouds,0,2011-11-02 06:34:00
2:54 AM,42.8,37.4,81,29.97,10.0,Calm,Calm,-,N/A,,Scattered Clouds,0,2011-11-02 06:54:00
3:13 AM,44.6,37.4,76,29.98,10.0,Calm,Calm,-,N/A,,Mostly Cloudy,0,2011-11-02 07:13:00
3:34 AM,46.4,37.4,71,29.98,10.0,Calm,Calm,-,N/A,,Overcast,0,2011-11-02 07:34:00
3:54 AM,46.4,39.2,76,29.99,10.0,Calm,Calm,-,N/A,,Overcast,0,2011-11-02 07:54:00
4:13 AM,46.4,41.0,81,29.99,10.0,Calm,Calm,-,N/A,,Overcast,0,2011-11-02 08:13:00
4:34 AM,46.4,41.0,81,29.99,10.0,Calm,Calm,-,N/A,,Overcast,0,2011-11-02 08:34:00
4:53 AM,48.2,41.0,76,29.99,10.0,Calm,Calm,-,N/A,,Overcast,0,2011-11-02 08:53:00
6:54 AM,44.6,42.8,93,30.00,10.0,Calm,Calm,-,N/A,,Overcast,0,2011-11-02 10:54:00
7:14 AM,46.4,42.8,87,30.00,10.0,Calm,Calm,-,N/A,,Overcast,0,2011-11-02 11:14:00
7:34 AM,44.6,42.8,93,30.02,10.0,Calm,Calm,-,0.01,,Overcast,0,2011-11-02 11:34:00
7:54 AM,44.6,44.6,100,30.03,5.0,NNW,4.6,-,0.02,Rain,Light Rain,330,2011-11-02 11:54:00
7:59 AM,44.6,44.6,100,30.02,3.0,NNE,3.5,-,0.02,Rain,Light Rain,20,2011-11-02 11:59:00
8:14 AM,44.6,44.6,100,30.02,2.0,North,3.5,-,0.01,Rain,Light Rain,360,2011-11-02 12:14:00
8:33 AM,44.6,44.6,100,30.00,2.5,ENE,4.6,-,0.02,,Overcast,60,2011-11-02 12:33:00
8:54 AM,44.6,44.6,100,30.00,1.2,NE,5.8,-,0.04,Rain,Light Rain,50,2011-11-02 12:54:00
8:59 AM,44.6,44.6,100,30.00,1.2,NE,5.8,-,0.04,Rain,Rain,50,2011-11-02 12:59:00
9:14 AM,44.6,44.6,100,30.02,1.2,NE,4.6,-,0.01,Rain,Light Rain,40,2011-11-02 13:14:00
9:33 AM,44.6,44.6,100,30.04,0.8,NNE,3.5,-,0.03,Rain,Light Rain,30,2011-11-02 13:33:00
9:54 AM,44.6,44.6,100,30.03,0.8,Calm,Calm,-,0.04,,Overcast,0,2011-11-02 13:54:00
10:14 AM,44.6,44.6,100,30.02,1.5,ENE,3.5,-,0.01,Rain,Light Rain,70,2011-11-02 14:14:00
10:34 AM,44.6,44.6,100,30.01,1.8,East,3.5,-,0.02,,Light Drizzle,80,2011-11-02 14:34:00
10:54 AM,44.6,44.6,100,30.02,2.5,ESE,4.6,-,0.03,,Overcast,110,2011-11-02 14:54:00
10:59 AM,44.6,44.6,100,30.02,2.5,Calm,Calm,-,0.04,,Overcast,0,2011-11-02 14:59:00
11:14 AM,44.6,44.6,100,30.01,3.0,ESE,3.5,-,0.01,Rain,Light Rain,110,2011-11-02 15:14:00
11:34 AM,44.6,44.6,100,30.02,3.0,Calm,Calm,-,0.02,,Overcast,0,2011-11-02 15:34:00
11:54 AM,44.6,44.6,100,30.02,3.0,Calm,Calm,-,0.03,,Overcast,0,2011-11-02 15:54:00
11:59 AM,44.6,44.6,100,30.02,2.5,Calm,Calm,-,0.03,,Overcast,0,2011-11-02 15:59:00
12:14 PM,44.6,44.6,100,30.01,2.5,Calm,Calm,-,0.01,,Overcast,0,2011-11-02 16:14:00
12:34 PM,44.6,44.6,100,30.01,3.0,Calm,Calm,-,0.02,,Overcast,0,2011-11-02 16:34:00
12:54 PM,44.6,44.6,100,30.00,2.5,Calm,Calm,-,0.03,,Overcast,0,2011-11-02 16:54:00
12:59 PM,44.6,44.6,100,30.00,2.5,Calm,Calm,-,0.03,,Overcast,0,2011-11-02 16:59:00
1:14 PM,44.6,44.6,100,30.00,1.8,Calm,Calm,-,0.01,,Overcast,0,2011-11-02 17:14:00
1:34 PM,44.6,44.6,100,30.00,1.5,Calm,Calm,-,0.02,,Overcast,0,2011-11-02 17:34:00
1:53 PM,44.6,44.6,100,30.00,1.8,Calm,Calm,-,0.02,,Overcast,0,2011-11-02 17:53:00
1:59 PM,44.6,44.6,100,30.00,2.0,Calm,Calm,-,0.03,,Overcast,0,2011-11-02 17:59:00
2:34 PM,44.6,44.6,100,29.99,1.2,NNE,3.5,-,0.01,,Overcast,30,2011-11-02 18:34:00
3:14 PM,44.6,44.6,100,30.00,1.8,Calm,Calm,-,0.01,,Overcast,0,2011-11-02 19:14:00
3:34 PM,44.6,44.6,100,30.00,1.8,Calm,Calm,-,0.02,Rain,Light Rain,0,2011-11-02 19:34:00
3:54 PM,44.6,44.6,100,30.00,1.0,North,3.5,-,0.03,Rain,Light Rain,350,2011-11-02 19:54:00
3:59 PM,44.6,44.6,100,30.00,1.2,Calm,Calm,-,0.03,Rain,Light Rain,0,2011-11-02 19:59:00
4:14 PM,44.6,44.6,100,29.99,1.2,Calm,Calm,-,N/A,Rain,Light Rain,0,2011-11-02 20:14:00
4:34 PM,44.6,44.6,100,29.99,1.0,North,3.5,-,0.01,,Overcast,350,2011-11-02 20:34:00
4:54 PM,44.6,44.6,100,29.99,0.8,North,3.5,-,0.02,Rain,Light Rain,350,2011-11-02 20:54:00
4:59 PM,44.6,44.6,100,30.00,1.0,NNW,3.5,-,0.02,Rain,Light Rain,340,2011-11-02 20:59:00
5:14 PM,44.6,44.6,100,30.00,0.8,North,4.6,-,0.01,Rain,Light Rain,350,2011-11-02 21:14:00
5:34 PM,44.6,44.6,100,30.00,1.0,North,4.6,-,0.02,Rain,Light Rain,350,2011-11-02 21:34:00
5:54 PM,44.6,44.6,100,30.01,1.2,NNW,4.6,-,0.03,Rain,Light Rain,340,2011-11-02 21:54:00
5:59 PM,44.6,44.6,100,30.00,1.0,North,4.6,-,0.03,,Overcast,350,2011-11-02 21:59:00
6:14 PM,44.6,44.6,100,30.00,1.0,North,4.6,-,N/A,,Overcast,10,2011-11-02 22:14:00
6:34 PM,44.6,44.6,100,30.00,4.0,NNW,4.6,-,0.01,Rain,Light Rain,340,2011-11-02 22:34:00
6:54 PM,44.6,44.6,100,30.01,3.0,North,5.8,-,0.02,,Overcast,350,2011-11-02 22:54:00
6:59 PM,44.6,44.6,100,30.01,3.0,North,8.1,-,0.03,,Overcast,360,2011-11-02 22:59:00
7:14 PM,44.6,44.6,100,30.01,3.0,North,8.1,-,N/A,,Overcast,350,2011-11-02 23:14:00
7:34 PM,44.6,42.8,93,30.02,5.0,North,13.8,19.6,0.01,Rain,Light Rain,360,2011-11-02 23:34:00
7:54 PM,42.8,41.0,93,30.03,10.0,North,11.5,25.3,0.02,Rain,Light Rain,350,2011-11-02 23:54:00
7:59 PM,42.8,41.0,93,30.03,10.0,North,12.7,25.3,0.03,Rain,Light Rain,360,2011-11-02 23:59:00
8:34 PM,41.0,41.0,100,30.04,4.0,North,11.5,17.3,0.02,,Overcast,360,2011-11-03 00:34:00
8:54 PM,41.0,41.0,100,30.05,4.0,North,6.9,-,0.03,,Overcast,350,2011-11-03 00:54:00
8:59 PM,41.0,41.0,100,30.05,5.0,North,8.1,-,0.04,,Overcast,350,2011-11-03 00:59:00
9:14 PM,41.0,41.0,100,30.05,4.0,North,9.2,-,0.01,,Overcast,350,2011-11-03 01:14:00
9:34 PM,41.0,39.2,93,30.05,7.0,North,9.2,18.4,0.02,Rain,Light Rain,10,2011-11-03 01:34:00
9:54 PM,41.0,39.2,93,30.05,10.0,North,4.6,-,0.03,Rain,Light Rain,10,2011-11-03 01:54:00
9:59 PM,41.0,39.2,93,30.05,10.0,North,5.8,-,0.04,Rain,Light Rain,360,2011-11-03 01:59:00
10:13 PM,41.0,39.2,93,30.06,10.0,North,8.1,-,0.01,Rain,Light Rain,350,2011-11-03 02:13:00
10:34 PM,41.0,39.2,93,30.06,7.0,North,8.1,-,0.02,Rain,Light Rain,350,2011-11-03 02:34:00
10:54 PM,41.0,39.2,93,30.07,7.0,North,5.8,-,0.03,Rain,Light Rain,350,2011-11-03 02:54:00
10:59 PM,41.0,39.2,93,30.07,7.0,North,6.9,-,0.04,Rain,Light Rain,350,2011-11-03 02:59:00
11:14 PM,41.0,39.2,93,30.08,5.0,NNW,5.8,-,0.01,,Overcast,340,2011-11-03 03:14:00
11:34 PM,41.0,39.2,93,30.08,7.0,NW,4.6,-,0.02,Rain,Light Rain,320,2011-11-03 03:34:00
11:54 PM,41.0,39.2,93,30.08,10.0,Calm,Calm,-,0.03,Rain,Light Rain,0,2011-11-03 03:54:00